Location: Allie Creek
(37.5926°N, 89.8526°W)
Time: 11:47:50
(UTC+00:00)

Cosmos 2322 Rocket - Pass Details

Date: 26 September 2023
Orbit: 831 x 852 km, 71.0° (Epoch: 28 November)

Event Time Altitude Azimuth Distance (km) Brightness Sun altitude
Rises 10:32:04 0° 329° (NNW) 3,397 5.1 -16.3°
Reaches altitude 10° 10:34:39 10° 321° (NW) 2,462 4.3 -15.8°
Maximum altitude 10:39:48 37° 256° (WSW) 1,282 2.6 -14.8°
Drops below altitude 10° 10:44:57 10° 190° (S) 2,460 4.4 -13.8°
Sets 10:47:32 0° 182° (S) 3,394 5.2 -13.3°
